Theta_e
333 334 335 335 336 336 337 337 336 336 336 336 335 334 333 332 331 330 329 329 329 330 329 328 328 328 326 323 322 322 322 322 322 321 321 321 322 321 321 322 323 323 323 322 321 320 319 317 317 316 315 311
330 331 332 332 333 334 335 335 334 334 334 333 332 331 329 329 329 329 328 329 329 329 328 327 326 325 324 322 321 320 320 319 320 320 320 320 320 321 320 321 322 321 322 320 319 318 316 315 314 314 312 309
328 327 327 328 330 331 332 332 331 331 330 329 327 326 325 325 326 326 327 327 327 327 325 323 322 322 321 320 319 318 317 317 318 318 318 319 321 321 320 321 321 320 320 319 317 316 314 313 312 311 308 306
327 325 325 325 326 327 327 328 327 326 324 322 322 322 322 321 320 322 323 324 321 321 319 319 316 318 318 318 318 316 316 316 316 316 317 317 318 318 318 318 318 318 318 317 316 314 312 310 308 303 303 304
327 325 323 323 324 324 324 324 323 321 320 319 319 318 317 317 316 316 317 317 316 317 314 316 316 316 316 316 316 315 314 314 315 315 315 315 315 313 311 310 312 314 314 314 313 312 310 308 302 302 302 303
324 323 323 324 324 324 323 321 320 320 318 315 316 316 315 314 313 315 315 315 313 313 313 315 316 315 316 315 314 312 312 313 313 314 314 314 313 310 308 305 295 298 307 309 309 308 307 302 300 300 301 302
322 322 322 322 322 321 319 317 316 316 316 316 315 314 313 312 313 314 314 314 313 312 314 312 314 314 314 313 312 311 311 311 311 311 311 310 309 306 303 294 293 293 292 294 302 302 298 298 299 299 300 300
320 320 320 319 319 319 318 316 315 314 312 312 313 313 313 313 313 313 312 310 308 308 307 307 309 308 307 306 306 303 301 304 304 304 306 305 301 298 294 290 290 291 290 291 291 292 294 295 296 297 297 297
317 317 317 317 317 317 316 315 314 312 311 311 312 312 312 313 312 311 310 308 306 305 304 303 302 300 299 297 297 298 292 291 292 292 289 290 291 288 290 289 289 290 290 290 290 289 290 291 292 293 294 294
315 316 315 315 315 315 314 314 313 312 311 311 311 311 312 310 309 307 305 303 302 301 300 299 297 296 295 293 292 292 290 289 289 288 288 288 288 287 288 288 288 289 289 289 289 289 289 289 289 290 291 291
314 314 314 314 314 313 312 312 311 310 310 310 310 310 310 308 305 303 302 300 299 298 297 295 294 293 292 291 290 290 289 288 288 287 287 287 287 286 287 288 288 288 288 288 288 288 288 288 289 289 289 289
313 313 313 312 312 312 311 311 310 308 307 309 309 309 308 307 304 302 300 298 296 295 294 293 292 292 292 291 290 290 288 287 286 287 286 287 286 287 287 288 287 287 287 287 287 288 287 288 288 288 287 288
313 313 311 310 310 309 309 307 307 307 307 307 307 307 306 304 301 299 298 296 294 292 291 290 290 290 290 289 288 289 288 287 287 286 286 286 286 286 286 286 286 286 286 286 286 287 287 286 286 287 287 287
311 310 309 308 308 307 306 305 305 306 305 305 305 303 302 301 300 298 296 294 293 292 290 290 290 290 289 288 287 288 288 287 287 286 286 286 286 286 286 286 287 286 286 286 286 286 286 286 285 285 285 286
308 307 306 304 304 304 302 301 301 301 300 300 300 299 299 299 298 296 295 293 292 291 291 290 289 289 288 288 287 287 287 287 287 287 286 286 286 286 286 285 285 286 286 285 286 286 286 285 285 285 286 286
305 304 303 302 301 300 300 299 298 297 297 296 296 296 296 296 296 295 294 293 292 292 291 290 290 289 288 287 287 288 287 287 287 287 287 287 286 286 286 285 286 286 285 285 285 285 285 285 285 285 285 286
301 301 300 299 299 298 298 296 295 294 294 294 294 294 294 294 294 294 293 293 292 292 291 290 289 288 289 288 288 288 288 287 286 286 286 286 286 285 285 285 284 285 285 285 285 285 285 285 285 285 285 285
297 296 295 295 293 293 292 292 291 291 290 291 292 293 293 293 293 293 293 292 291 291 289 288 288 287 286 287 288 289 289 288 287 286 285 285 284 285 283 283 283 283 284 284 284 284 284 284 284 284 285 285
293 293 292 292 291 291 290 289 289 289 289 289 288 289 290 291 290 290 290 290 289 287 286 285 285 284 284 285 286 286 287 287 286 285 284 285 283 282 282 281 282 282 282 283 283 283 283 284 284 284 284 284
291 290 290 289 289 288 288 288 287 287 287 288 287 287 286 287 287 287 287 287 286 285 284 284 283 283 283 283 283 283 284 284 284 283 281 281 282 282 280 280 279 280 280 282 283 283 283 283 284 283 283 284
289 289 288 286 286 286 285 285 285 285 285 284 284 284 284 284 284 284 285 284 284 283 282 282 281 281 281 282 282 282 281 282 282 281 280 279 279 279 278 278 278 278 279 280 282 282 282 282 283 282 283 283
287 286 286 285 284 285 283 283 283 283 283 283 282 282 281 282 282 282 282 282 282 281 281 280 280 279 280 280 280 279 280 279 280 280 279 277 277 277 276 276 275 276 276 280 281 281 281 282 282 282 282 282
286 285 285 284 283 282 281 281 281 282 281 281 281 281 280 280 280 280 280 280 281 280 279 279 278 278 278 279 278 278 278 278 279 279 278 277 277 277 276 275 275 274 276 280 282 281 281 281 281 281 281 280
286 285 284 282 282 281 280 280 280 279 279 279 279 279 279 278 279 279 279 279 279 279 278 277 277 277 277 277 277 277 277 277 277 277 277 277 277 277 277 276 275 275 276 280 281 281 281 280 281 280 280 278
286 284 283 282 281 279 280 279 279 278 278 278 278 277 278 277 278 277 278 278 277 277 278 277 277 277 276 277 276 276 275 276 276 277 277 277 277 277 276 275 275 274 276 279 279 280 279 279 280 281 279 277
285 284 283 281 279 279 279 278 278 277 277 277 277 277 277 277 277 276 276 276 276 276 276 276 276 275 275 276 276 275 275 275 276 275 275 277 276 276 275 273 274 273 278 279 277 278 278 278 279 280 278 276
281 281 280 279 278 277 276 277 277 276 277 277 276 276 277 277 277 277 276 275 275 275 275 275 274 274 274 274 275 274 274 274 273 273 274 275 275 274 275 274 274 273 275 275 274 276 277 276 276 280 277 277
281 280 280 279 279 278 278 276 277 277 277 276 276 275 275 275 275 275 275 275 275 274 274 274 274 274 274 273 274 274 273 273 272 273 273 274 275 276 273 273 273 274 273 273 276 276 275 273 274 275 275 274
280 279 279 279 279 279 278 279 278 277 275 275 275 274 274 274 274 275 274 275 274 274 273 273 274 273 273 273 273 273 272 272 272 272 272 273 273 273 274 272 272 273 273 272 273 275 274 272 273 272 274 275
280 280 279 278 278 278 278 277 276 275 273 273 272 272 273 274 274 274 273 274 274 273 273 272 272 272 272 272 272 272 272 271 271 271 271 272 272 272 272 273 272 271 273 272 272 271 270 272 273 273 274 275
282 281 282 281 280 279 276 274 273 274 274 273 273 273 272 272 273 273 272 272 272 273 273 272 272 272 272 271 271 272 271 270 270 270 271 271 271 271 272 271 269 269 269 270 271 270 271 270 270 269 271 270
Wind_Speed
15 16 15 14 15 15 15 15 14 14 16 16 16 18 15 14 15 15 16 17 18 17 16 15 15 15 15 15 14 14 14 13 13 12 11 11 11 12 12 14 15 15 15 15 15 14 13 14 12 12 9 7
15 15 14 14 14 15 15 15 15 14 14 15 16 16 15 13 14 15 16 19 19 17 17 15 15 14 14 14 14 14 14 14 14 13 13 12 12 12 13 14 14 15 15 15 14 14 14 14 13 12 10 7
9 14 13 13 13 13 14 15 17 16 16 16 14 15 15 14 15 15 16 16 17 17 15 13 13 13 14 14 14 14 14 14 15 14 14 14 14 14 14 14 14 14 14 14 14 14 13 13 12 13 8 6
8 11 14 13 13 13 15 17 18 18 16 16 14 15 15 15 14 13 14 18 14 15 14 12 10 12 14 15 15 14 14 15 15 16 16 16 15 15 14 14 14 14 14 14 14 13 13 12 12 8 6 6
8 10 13 11 15 17 17 16 17 17 17 15 14 13 14 13 10 9 9 10 9 11 9 12 12 12 13 15 15 14 14 14 15 16 16 16 16 14 13 13 14 14 14 13 14 13 12 12 8 6 6 7
7 9 10 9 10 11 14 14 15 13 11 11 10 12 10 8 8 8 8 8 9 8 8 9 12 12 13 15 15 15 14 14 15 16 16 16 15 14 12 12 7 7 10 13 13 12 12 8 6 6 7 7
7 9 9 8 9 9 13 11 11 10 10 8 9 8 8 8 7 8 7 7 8 8 12 11 11 12 12 14 14 14 14 14 14 15 15 15 14 13 12 8 6 6 6 6 11 10 8 7 6 6 7 7
8 7 8 8 8 8 9 9 8 8 8 7 8 8 8 7 8 8 8 11 12 10 7 8 11 12 12 11 11 12 9 11 11 13 14 15 13 9 6 6 6 6 6 6 6 6 6 6 6 7 6 6
8 7 7 7 8 8 8 8 8 8 8 7 8 8 8 8 8 7 6 6 6 6 6 6 5 5 5 5 6 7 6 6 6 7 7 8 8 6 6 6 6 5 6 6 6 6 6 6 6 6 6 6
8 9 8 8 8 8 7 8 8 8 8 8 8 7 8 8 8 7 7 6 6 6 5 6 5 5 4 6 5 4 6 5 6 6 6 7 7 6 6 6 6 5 6 6 6 6 6 6 6 6 6 6
8 7 6 8 10 10 8 8 8 7 8 8 8 8 8 9 8 7 7 7 6 6 5 6 5 5 5 5 5 4 6 6 5 6 6 7 6 6 7 6 6 6 6 5 6 6 7 6 6 6 6 6
9 7 6 6 7 9 8 8 8 7 6 8 8 8 7 8 8 8 8 7 7 5 6 6 5 5 6 5 5 4 5 6 5 6 6 6 6 7 6 7 6 6 6 6 5 7 6 6 6 6 6 6
8 9 6 6 7 8 7 6 6 7 7 6 6 6 7 7 8 7 7 7 7 6 7 5 5 6 5 5 4 4 6 5 6 6 6 6 6 6 6 6 6 6 6 6 6 6 7 6 6 6 6 6
8 9 8 5 7 7 7 7 7 6 6 5 6 6 6 6 7 7 8 8 6 8 7 6 6 6 5 6 4 5 7 5 6 6 6 6 6 7 7 7 5 5 6 7 7 7 7 7 6 6 6 7
8 8 9 7 6 7 7 7 7 7 6 6 6 6 7 7 7 8 8 8 7 7 7 6 6 6 5 6 5 5 6 5 6 6 7 6 6 6 7 6 6 6 7 7 7 6 7 6 6 6 6 6
8 8 8 8 7 7 7 8 7 7 7 6 6 6 6 6 6 7 7 7 7 6 8 7 7 6 6 5 5 5 5 6 6 7 6 6 6 5 5 5 6 5 6 7 6 6 7 6 7 6 6 7
7 7 8 8 7 6 7 7 7 7 7 7 7 7 6 6 7 6 6 6 7 6 6 7 7 7 6 5 4 5 5 6 5 6 6 7 5 6 6 7 7 5 7 7 7 7 7 6 7 6 7 7
7 8 8 8 9 8 6 6 6 6 6 6 6 7 7 7 7 7 6 6 8 6 6 6 6 6 5 4 4 5 4 6 5 6 7 5 7 7 7 7 6 6 7 6 6 7 5 6 6 6 8 8
7 7 9 8 9 9 8 7 7 8 8 9 8 7 7 7 7 8 7 7 7 6 6 6 6 6 4 3 4 4 5 6 6 7 7 5 6 5 6 5 6 6 6 6 8 6 5 6 6 7 8 8
10 7 9 10 9 10 10 9 9 8 8 8 9 9 8 7 7 7 7 6 5 7 6 6 7 5 4 5 4 4 6 6 7 6 8 6 4 6 6 6 7 6 7 6 7 5 6 6 7 7 7 9
12 10 9 10 11 11 11 10 9 8 8 9 10 8 7 7 7 7 7 7 7 7 7 7 7 6 5 4 6 7 5 6 5 6 7 8 7 6 5 6 5 6 7 6 6 6 7 7 7 8 7 8
11 10 10 9 10 10 12 12 10 9 9 10 9 8 8 8 7 7 8 7 7 9 9 8 7 6 5 5 7 5 6 7 6 7 7 9 7 6 6 7 7 6 6 5 6 7 8 7 8 7 8 8
13 13 12 10 10 11 12 11 11 9 10 9 9 10 9 8 7 8 8 8 8 9 8 8 7 7 6 5 6 7 6 7 7 7 7 8 7 7 8 7 6 5 3 4 6 8 7 7 8 7 8 8
9 10 10 11 10 10 9 9 10 11 10 8 9 9 9 9 8 9 8 8 8 9 8 8 8 7 6 7 6 6 7 6 6 7 8 8 6 5 6 7 5 5 4 6 7 7 7 7 7 9 8 10
6 7 10 9 9 9 7 8 9 9 9 10 9 10 10 10 9 9 10 10 9 9 8 8 7 7 7 7 8 8 7 6 7 7 7 6 6 6 7 8 8 6 3 4 6 5 6 8 7 8 9 10
7 5 4 8 9 10 9 6 7 9 8 8 9 10 11 10 10 11 11 10 10 9 8 8 8 8 8 7 7 8 6 8 8 8 8 5 7 7 7 7 9 8 2 4 3 5 2 3 4 6 9 9
9 9 8 9 8 8 10 9 9 9 9 9 10 11 10 10 10 10 11 11 11 8 9 9 9 8 7 9 7 7 8 8 10 8 9 8 5 4 7 7 8 11 9 3 1 0 3 1 2 2 5 6
9 12 13 12 11 11 10 10 10 10 9 9 11 12 11 10 10 10 10 11 10 9 9 9 9 8 9 9 8 8 8 9 9 8 7 7 7 3 5 6 7 9 9 5 1 2 1 1 2 2 2 4
11 12 13 13 13 12 13 10 8 8 10 10 10 10 11 10 10 11 10 11 11 9 9 9 9 9 9 9 9 8 9 9 8 8 8 8 8 8 5 5 4 7 9 11 8 2 3 1 2 0 1 2
6 7 10 10 10 10 8 8 6 8 8 7 8 10 8 10 10 11 11 10 11 10 8 9 10 10 10 10 8 9 8 7 8 10 10 9 7 9 8 5 5 4 7 9 11 10 6 1 2 1 2 0
7 7 5 6 8 8 9 11 8 8 8 9 9 8 10 9 10 11 11 11 10 9 9 8 9 11 11 10 9 8 8 9 10 9 9 8 9 8 6 6 8 6 2 2 8 7 8 9 6 3 1 1
Wind_Direction
150 147 146 146 143 145 142 137 132 129 130 133 128 128 126 118 116 112 108 103 100 104 102 103 102 97 96 95 96 93 91 89 88 88 89 88 88 85 82 78 76 77 75 72 70 66 61 59 53 54 57 56
154 146 145 142 143 144 142 135 124 119 121 121 121 122 118 114 109 105 102 99 99 101 101 101 100 96 95 95 94 93 90 90 90 91 91 93 94 88 85 79 74 73 74 71 69 65 62 60 55 54 56 54
150 143 136 134 136 139 136 127 119 119 122 121 117 112 106 101 94 89 90 94 99 98 95 92 93 95 94 93 92 90 89 89 88 88 88 87 84 81 79 73 68 69 70 69 67 64 63 59 58 55 54 53
140 134 128 127 124 120 122 119 120 120 117 112 107 104 101 97 93 90 91 95 92 94 94 92 93 92 94 94 91 88 88 87 88 85 83 79 75 72 70 67 65 65 67 67 66 64 64 62 57 52 53 52
125 119 114 115 117 118 118 117 116 113 109 106 104 102 99 94 92 94 92 89 92 87 88 88 87 90 93 94 92 88 87 88 87 86 84 81 76 71 65 61 60 63 63 62 64 62 61 60 56 48 52 50
124 120 113 118 117 116 115 117 114 112 112 109 106 101 99 98 98 99 95 94 89 84 79 76 80 85 92 93 89 85 83 85 87 87 84 79 75 70 64 61 53 45 51 56 60 61 61 59 57 48 51 50
125 125 123 119 116 117 117 118 113 115 114 113 111 108 105 102 101 97 90 88 90 88 80 69 64 62 61 69 73 76 75 72 76 79 77 73 70 66 61 55 52 55 52 46 49 52 53 58 54 55 52 52
126 128 126 126 123 122 120 117 115 111 110 112 116 114 106 104 100 95 97 94 87 82 78 70 63 60 61 60 61 63 59 58 59 62 65 68 65 58 57 57 47 59 55 53 51 53 54 57 53 55 52 54
134 129 125 125 122 126 124 122 119 117 114 115 114 112 112 109 101 98 92 86 80 79 80 77 69 58 60 62 56 55 66 58 54 56 59 57 59 55 57 56 40 48 56 52 52 53 50 56 53 54 51 52
133 131 135 132 128 125 125 127 128 130 126 122 118 118 115 107 102 98 94 88 86 83 84 80 74 64 64 62 57 47 74 59 63 63 63 65 65 60 63 62 56 49 56 59 54 53 49 52 53 54 51 49
129 131 136 139 139 134 136 134 130 132 132 129 127 125 126 121 114 108 106 99 95 89 83 81 77 74 62 63 57 36 80 70 63 69 69 68 68 67 67 62 57 59 56 55 64 54 49 45 47 44 41 40
129 124 123 126 131 123 132 133 132 128 123 128 127 128 123 119 123 124 116 110 103 98 85 82 77 78 67 60 54 49 62 79 62 61 63 68 57 61 57 63 49 55 51 50 53 65 51 49 43 41 37 38
128 120 115 123 116 114 117 111 109 114 116 117 117 117 121 125 123 115 114 115 114 105 89 84 76 71 67 58 39 55 53 56 68 58 58 59 63 61 58 53 42 49 51 47 45 55 54 47 43 37 36 34
122 125 122 118 115 112 106 103 106 108 102 98 109 105 105 107 115 117 119 117 113 108 103 94 86 77 67 63 39 54 62 39 65 67 62 58 58 61 57 54 32 52 51 43 39 39 48 40 37 40 39 35
108 106 108 99 97 101 103 101 97 93 90 85 81 94 99 104 108 116 117 119 121 114 112 102 92 83 81 66 48 60 75 58 70 70 67 64 66 63 63 56 39 45 53 43 36 30 42 28 36 37 33 43
95 93 95 99 95 92 96 98 96 90 86 79 73 75 86 94 99 103 106 111 110 110 113 107 95 92 82 75 69 69 77 73 65 74 73 69 69 72 74 64 48 37 55 46 35 30 37 25 39 30 33 42
76 79 82 86 86 84 87 89 87 81 82 80 72 68 65 75 87 82 93 89 90 84 86 97 99 87 81 80 79 79 83 83 75 66 60 48 51 52 53 49 31 31 49 42 24 31 26 31 36 29 44 44
59 71 74 73 74 63 56 53 63 62 57 64 61 66 61 65 66 77 76 91 87 77 75 69 70 75 68 57 63 73 70 75 67 70 61 46 55 44 51 48 31 34 36 27 28 32 15 39 36 43 53 50
46 60 77 73 73 73 66 58 57 63 66 69 64 53 45 46 60 64 68 73 85 74 68 63 52 40 24 26 48 57 58 81 75 73 66 45 62 57 49 46 41 39 45 30 32 21 24 41 41 51 57 54
70 43 72 79 71 73 70 68 60 51 58 65 62 59 52 21 41 53 59 56 55 80 67 67 66 49 24 6 47 53 67 66 68 73 72 46 45 76 45 40 33 31 34 31 32 24 42 46 52 59 55 56
91 84 56 67 75 74 70 65 61 54 52 57 58 50 44 31 36 37 51 60 57 72 68 66 65 54 26 17 52 60 37 53 45 73 78 57 44 66 84 57 42 37 33 26 35 42 50 45 54 56 55 57
88 81 78 64 65 70 72 66 57 53 52 50 50 53 45 31 38 34 43 49 62 75 72 64 60 44 25 43 58 51 47 53 46 53 68 74 49 49 64 52 40 32 26 25 49 55 51 49 57 58 59 60
101 97 89 78 67 64 69 67 65 58 52 48 51 49 43 37 39 34 33 42 52 75 72 67 57 49 32 38 58 63 61 55 54 58 53 72 68 57 59 62 47 43 26 49 74 65 51 56 60 63 65 62
103 105 101 100 89 65 56 68 69 59 57 43 45 44 38 42 44 37 34 32 45 63 65 68 62 57 37 39 47 48 54 46 38 54 63 55 60 57 65 52 34 36 33 75 72 72 59 50 57 61 63 62
96 105 113 94 86 87 74 74 77 72 67 63 55 50 43 37 37 36 34 28 34 48 65 68 65 58 46 47 55 56 54 52 59 52 64 71 51 36 40 26 13 19 5 115 74 61 63 56 40 63 65 64
91 47 45 101 103 105 90 75 69 78 65 64 61 57 53 45 38 41 43 32 28 40 51 63 60 53 47 45 54 60 57 58 55 51 46 52 69 38 59 50 12 355 344 50 126 132 111 53 49 62 65 62
99 93 74 78 90 92 94 73 74 77 80 75 68 60 57 57 51 46 49 43 34 30 36 51 59 55 49 44 43 52 45 41 50 46 49 38 80 84 57 71 33 22 18 120 50 230 90 182 94 205 71 66
95 103 105 92 93 88 84 96 84 74 68 67 66 58 54 51 49 47 47 45 44 38 36 44 56 57 53 46 39 47 52 45 45 41 42 45 43 66 92 46 42 36 29 48 352 70 132 198 118 155 41 55
115 115 107 108 103 102 101 90 85 73 53 54 62 65 51 49 51 53 52 48 46 37 33 42 49 53 54 55 44 46 53 51 42 43 46 46 54 38 83 91 78 45 37 41 26 105 106 80 53 200 288 66
101 114 126 131 128 127 118 97 72 76 85 63 51 62 63 55 53 58 56 52 47 40 27 40 53 56 54 52 50 45 51 52 45 40 44 38 51 58 43 93 83 70 47 49 42 46 59 71 149 148 270 159
118 114 106 94 92 94 104 106 85 86 83 86 83 75 65 60 53 53 58 55 53 47 37 35 47 58 61 57 53 51 52 48 46 44 42 39 48 50 53 55 77 55 0 27 47 40 54 63 56 24 59 124